Tracking 29892 objects as of 21-Nov-2024
HD Live streaming from Space Station
objects crossing your sky now

STARLINK-2450

Track STARLINK-2450 now!
10-day predictions
STARLINK-2450 is classified as:


NORAD ID: 48113
Int'l Code: 2021-027X
Perigee: 553.3 km
Apogee: 555.3 km
Inclination: 53.1 °
Period: 95.6 minutes
Semi major axis: 6925 km
RCS: Unknown
Launch date: April 7, 2021
Source: United States (US)
Launch site: AIR FORCE EASTERN TEST RANGE (AFETR)
Your satellite tracking list
Your tracking list is empty




NASA's NSSDC Master Catalog

Two Line Element Set (TLE):
1 48113U 21027X   24325.50839343  .00003895  00000-0  28013-3 0  9992
2 48113  53.0533 140.2974 0001447  96.1056 264.0098 15.06416786200935
Source of the keplerian elements: AFSPC